TimeCDT,TemperatureF,Dew PointF,Humidity,Sea Level PressureIn,VisibilityMPH,Wind Direction,Wind SpeedMPH,Gust SpeedMPH,PrecipitationIn,Events,Conditions,WindDirDegrees,DateUTC
12:53 AM,66.0,59.0,78,29.97,10.0,South,4.6,-,N/A,,Clear,170,2013-09-12 05:53:00
1:53 AM,63.0,57.9,84,29.98,8.0,SSW,3.5,-,N/A,,Clear,200,2013-09-12 06:53:00
2:53 AM,63.0,55.9,78,29.99,10.0,Calm,Calm,-,N/A,,Clear,0,2013-09-12 07:53:00
3:53 AM,62.1,55.0,78,30.00,10.0,Calm,Calm,-,N/A,,Clear,0,2013-09-12 08:53:00
4:53 AM,61.0,55.0,81,30.02,10.0,North,6.9,-,N/A,,Clear,350,2013-09-12 09:53:00
5:53 AM,63.0,54.0,72,30.03,10.0,NNW,11.5,-,N/A,,Clear,330,2013-09-12 10:53:00
6:53 AM,59.0,53.1,81,30.06,10.0,North,8.1,-,N/A,,Clear,350,2013-09-12 11:53:00
7:53 AM,61.0,54.0,78,30.09,10.0,NNW,9.2,-,N/A,,Clear,340,2013-09-12 12:53:00
8:53 AM,64.0,53.1,67,30.09,10.0,NNW,10.4,-,N/A,,Clear,330,2013-09-12 13:53:00
9:53 AM,66.9,52.0,59,30.10,10.0,NNW,9.2,-,N/A,,Clear,330,2013-09-12 14:53:00
10:53 AM,69.1,51.1,53,30.12,10.0,NNW,10.4,-,N/A,,Clear,330,2013-09-12 15:53:00
11:53 AM,72.0,50.0,46,30.12,10.0,North,13.8,-,N/A,,Clear,360,2013-09-12 16:53:00
12:53 PM,72.0,48.9,44,30.12,10.0,North,16.1,25.3,N/A,,Partly Cloudy,350,2013-09-12 17:53:00
1:53 PM,72.0,48.0,43,30.11,10.0,NW,13.8,21.9,N/A,,Partly Cloudy,320,2013-09-12 18:53:00
2:53 PM,77.0,48.0,36,30.09,10.0,NNW,18.4,23.0,N/A,,Mostly Cloudy,330,2013-09-12 19:53:00
3:53 PM,77.0,46.0,33,30.08,10.0,NNW,17.3,25.3,N/A,,Mostly Cloudy,330,2013-09-12 20:53:00
4:53 PM,75.0,46.0,36,30.09,10.0,North,18.4,24.2,N/A,,Mostly Cloudy,350,2013-09-12 21:53:00
5:53 PM,73.0,45.0,37,30.09,10.0,North,15.0,21.9,N/A,,Clear,10,2013-09-12 22:53:00
6:53 PM,70.0,45.0,41,30.11,10.0,North,9.2,-,N/A,,Scattered Clouds,350,2013-09-12 23:53:00
7:53 PM,64.0,45.0,50,30.13,10.0,NNW,8.1,-,N/A,,Clear,340,2013-09-13 00:53:00
8:53 PM,61.0,46.0,58,30.15,10.0,North,4.6,-,N/A,,Clear,360,2013-09-13 01:53:00
9:53 PM,60.1,46.9,62,30.16,10.0,North,5.8,-,N/A,,Clear,350,2013-09-13 02:53:00
10:53 PM,57.0,46.9,69,30.17,10.0,North,5.8,-,N/A,,Clear,350,2013-09-13 03:53:00
11:53 PM,55.0,46.9,74,30.19,10.0,North,4.6,-,N/A,,Clear,10,2013-09-13 04:53:00